Location: Riverside
(39.1734°N, 77.8561°W)
Time: 00:35:36
(UTC+00:00)

BEESAT 3 - Pass Details

Date: 27 May 2019
Orbit: 485 x 526 km, 64.9° (Epoch: 14 June)

Event Time Altitude Azimuth Distance (km) Brightness Sun altitude
Rises 05:01:25 0° 335° (NNW) 2,663 ? -29.6°
Reaches altitude 10° 05:03:42 10° 342° (NNW) 1,772 ? -29.6°
Enters shadow 05:05:56 28° 4° (N) 1,003 ? -29.6°
